THYPQ9 LTFM-LTFO

Flight info

Callsign THYPQ9
Flight time 1h 25m
Altitude 39000
Route EKAWE UT641 ABSAX UN743 GAKSU UT310 SIN UN644 KARDE UL851 TBN UN37 ODZOL
Aircraft B38M/M-SDE1FGHILORVWXY/HB1

Departure

Time 2026-04-26 00:45
Airport İstanbul Airport (LTFM)

Arrival

Time 2026-04-26 02:11
Airport Rize–Artvin Airport (LTFO)
Time Latitude Longitude Altitude Speed Heading
2026-04-26 00:34 41.25735 28.74944 335 ft 0 kts 358°
2026-04-26 00:36 41.25721 28.74947 334 ft 2 kts 354°
2026-04-26 00:36 41.25706 28.74947 335 ft 2 kts
2026-04-26 00:36 41.25691 28.74948 334 ft 2 kts 358°
2026-04-26 00:36 41.25676 28.74948 334 ft 2 kts 359°
2026-04-26 00:37 41.25661 28.74949 334 ft 2 kts 358°
2026-04-26 00:37 41.25645 28.74949 335 ft 2 kts 359°
2026-04-26 00:37 41.25634 28.74950 334 ft 1 kts 322°
2026-04-26 00:37 41.25629 28.74962 334 ft 1 kts 263°
2026-04-26 00:38 41.25630 28.74982 334 ft 2 kts 289°
2026-04-26 00:38 41.25624 28.75000 334 ft 2 kts 301°
2026-04-26 00:38 41.25615 28.75016 334 ft 2 kts 318°
2026-04-26 00:38 41.25602 28.75027 334 ft 2 kts 334°
2026-04-26 00:39 41.25588 28.75034 334 ft 2 kts 350°
2026-04-26 00:39 41.25580 28.75035 334 ft 1 kts 359°
2026-04-26 00:39 41.25575 28.75035 334 ft 0 kts 359°
2026-04-26 00:41 41.25577 28.75035 334 ft 0 kts 359°
2026-04-26 00:41 41.25592 28.75037 334 ft 2 kts
2026-04-26 00:41 41.25616 28.75052 334 ft 5 kts 42°
2026-04-26 00:41 41.25631 28.75102 334 ft 11 kts 84°
2026-04-26 00:42 41.25635 28.75255 335 ft 19 kts 89°
2026-04-26 00:42 41.25663 28.75381 334 ft 14 kts 31°
2026-04-26 00:42 41.25778 28.75393 334 ft 18 kts 359°
2026-04-26 00:42 41.25907 28.75391 334 ft 18 kts 359°
2026-04-26 00:43 41.26044 28.75388 334 ft 18 kts 359°
2026-04-26 00:43 41.26158 28.75385 334 ft 8 kts 359°
2026-04-26 00:43 41.26219 28.75418 334 ft 10 kts 62°
2026-04-26 00:43 41.26234 28.75534 335 ft 13 kts 89°
2026-04-26 00:44 41.26268 28.75655 335 ft 14 kts 31°
2026-04-26 00:44 41.26312 28.75668 335 ft 0 kts
2026-04-26 00:44 41.26320 28.75668 335 ft 6 kts
2026-04-26 00:45 41.26526 28.75664 335 ft 65 kts 359°
2026-04-26 00:45 41.27217 28.75653 335 ft 132 kts 359°
2026-04-26 00:45 41.28315 28.75640 471 ft 172 kts
2026-04-26 00:45 41.29483 28.75677 1397 ft 163 kts
2026-04-26 00:46 41.30516 28.76179 2097 ft 166 kts 43°
2026-04-26 00:46 41.31281 28.77407 2531 ft 180 kts 45°
2026-04-26 00:46 41.32347 28.78347 2952 ft 192 kts 23°
2026-04-26 00:46 41.33623 28.79106 3338 ft 211 kts 25°
2026-04-26 00:47 41.34985 28.80039 3773 ft 230 kts 28°
2026-04-26 00:47 41.36435 28.81113 4290 ft 247 kts 28°
2026-04-26 00:47 41.38003 28.82181 4782 ft 262 kts 20°
2026-04-26 00:47 41.39810 28.82608 5400 ft 270 kts 357°
2026-04-26 00:48 41.41698 28.82363 6170 ft 273 kts 350°
2026-04-26 00:48 41.43595 28.82001 6923 ft 277 kts 351°
2026-04-26 00:48 41.45504 28.81684 7667 ft 281 kts 352°
2026-04-26 00:48 41.47451 28.81418 8412 ft 284 kts 353°
2026-04-26 00:49 41.49418 28.81175 9122 ft 288 kts 353°
2026-04-26 00:49 41.51431 28.80935 9838 ft 291 kts 353°
2026-04-26 00:49 41.53452 28.80690 10455 ft 298 kts 353°
2026-04-26 00:49 41.55575 28.80426 10822 ft 314 kts 353°
2026-04-26 00:50 41.57791 28.80154 11189 ft 329 kts 354°
2026-04-26 00:50 41.60147 28.80142 11502 ft 346 kts
2026-04-26 00:50 41.62515 28.81061 11825 ft 364 kts 27°
2026-04-26 00:50 41.64590 28.83036 12457 ft 369 kts 39°
2026-04-26 00:51 41.66539 28.85276 13087 ft 373 kts 40°
2026-04-26 00:51 41.68493 28.87546 13728 ft 377 kts 40°
2026-04-26 00:51 41.70495 28.89853 13970 ft 379 kts 39°
2026-04-26 00:51 41.72451 28.92214 14001 ft 378 kts 45°
2026-04-26 00:52 41.74099 28.94974 14069 ft 387 kts 58°
2026-04-26 00:52 41.75360 28.98160 14949 ft 384 kts 64°
2026-04-26 00:52 41.76463 29.01413 15663 ft 386 kts 65°
2026-04-26 00:52 41.77533 29.04713 16321 ft 389 kts 66°
2026-04-26 00:53 41.78614 29.08041 16924 ft 393 kts 65°
2026-04-26 00:53 41.79715 29.11377 17562 ft 395 kts 65°
2026-04-26 00:53 41.80853 29.14763 18193 ft 398 kts 64°
2026-04-26 00:53 41.82008 29.18158 18788 ft 401 kts 64°
2026-04-26 00:54 41.83178 29.21574 19368 ft 405 kts 64°
2026-04-26 00:54 41.84347 29.24980 19935 ft 408 kts 64°
2026-04-26 00:54 41.85536 29.28443 20507 ft 411 kts 64°
2026-04-26 00:54 41.86738 29.31947 21064 ft 414 kts 64°
2026-04-26 00:55 41.87936 29.35446 21609 ft 417 kts 64°
2026-04-26 00:55 41.89176 29.38972 22112 ft 420 kts 62°
2026-04-26 00:55 41.90564 29.42477 22632 ft 422 kts 58°
2026-04-26 00:55 41.92189 29.45734 23163 ft 423 kts 52°
2026-04-26 00:56 41.94021 29.48840 23628 ft 426 kts 49°
2026-04-26 00:56 41.95967 29.51878 24127 ft 429 kts 47°
2026-04-26 00:56 41.97933 29.54851 24608 ft 431 kts 46°
2026-04-26 00:56 41.99924 29.57850 25038 ft 434 kts 47°
2026-04-26 00:57 42.01861 29.60988 25523 ft 437 kts 52°
2026-04-26 00:57 42.03463 29.64442 25967 ft 441 kts 61°
2026-04-26 00:57 42.04631 29.68292 26401 ft 446 kts 72°
2026-04-26 00:57 42.05293 29.72355 26833 ft 450 kts 82°
2026-04-26 00:58 42.05471 29.76623 27260 ft 454 kts 89°
2026-04-26 00:58 42.05350 29.80831 27662 ft 457 kts 92°
2026-04-26 00:58 42.05113 29.85125 28056 ft 460 kts 94°
2026-04-26 00:58 42.04823 29.89423 28437 ft 463 kts 94°
2026-04-26 00:59 42.04509 29.93729 28844 ft 465 kts 94°
2026-04-26 00:59 42.04185 29.98050 29223 ft 467 kts 94°
2026-04-26 00:59 42.03859 30.02393 29839 ft 464 kts 94°
2026-04-26 00:59 42.03534 30.06720 30411 ft 461 kts 94°
2026-04-26 01:00 42.03219 30.10949 30870 ft 461 kts 94°
2026-04-26 01:00 42.02901 30.15245 31344 ft 460 kts 94°
2026-04-26 01:00 42.02585 30.19523 31785 ft 460 kts 94°
2026-04-26 01:00 42.02269 30.23801 32256 ft 458 kts 94°
2026-04-26 01:01 42.01959 30.27996 32679 ft 458 kts 94°
2026-04-26 01:01 42.01644 30.32247 33111 ft 457 kts 94°
2026-04-26 01:01 42.01327 30.36508 33518 ft 456 kts 94°
2026-04-26 01:01 42.01012 30.40723 33943 ft 455 kts 94°
2026-04-26 01:02 42.00695 30.44955 34331 ft 455 kts 94°
2026-04-26 01:02 42.00377 30.49173 34689 ft 454 kts 94°
2026-04-26 01:02 42.00061 30.53362 35000 ft 454 kts 94°
2026-04-26 01:02 41.99771 30.57603 35317 ft 453 kts 91°
2026-04-26 01:03 41.99645 30.61784 35625 ft 452 kts 89°
2026-04-26 01:03 41.99641 30.66021 35889 ft 452 kts 88°
2026-04-26 01:03 41.99694 30.70226 36185 ft 451 kts 87°
2026-04-26 01:03 41.99765 30.74431 36470 ft 451 kts 87°
2026-04-26 01:04 41.99833 30.78624 36816 ft 450 kts 87°
2026-04-26 01:04 41.99892 30.82808 37154 ft 450 kts 87°
2026-04-26 01:04 41.99941 30.87025 37499 ft 450 kts 88°
2026-04-26 01:04 41.99981 30.91229 37824 ft 450 kts 88°
2026-04-26 01:05 42.00015 30.95455 38113 ft 450 kts 87°
2026-04-26 01:05 42.00149 30.99641 38465 ft 448 kts 84°
2026-04-26 01:05 42.00519 31.03789 38706 ft 448 kts 78°
2026-04-26 01:05 42.01149 31.07859 38960 ft 446 kts 74°
2026-04-26 01:06 42.02780 31.15905 38977 ft 448 kts 71°
2026-04-26 01:06 42.04561 31.23896 38980 ft 446 kts 71°
2026-04-26 01:07 42.06322 31.31888 38992 ft 447 kts 72°
2026-04-26 01:07 42.08042 31.39886 38987 ft 447 kts 72°
2026-04-26 01:08 42.09742 31.47917 38981 ft 448 kts 72°
2026-04-26 01:08 42.11431 31.55966 38995 ft 448 kts 72°
2026-04-26 01:09 42.13113 31.64034 38976 ft 448 kts 72°
2026-04-26 01:09 42.14789 31.72100 38976 ft 448 kts 73°
2026-04-26 01:10 42.16456 31.80154 38985 ft 448 kts 73°
2026-04-26 01:10 42.18117 31.88219 38990 ft 448 kts 73°
2026-04-26 01:11 42.19780 31.96320 39000 ft 449 kts 73°
2026-04-26 01:11 42.21437 32.04417 38988 ft 448 kts 73°
2026-04-26 01:12 42.23082 32.12495 38975 ft 449 kts 73°
2026-04-26 01:12 42.24736 32.20646 38988 ft 449 kts 73°
2026-04-26 01:13 42.26498 32.28702 38995 ft 449 kts 71°
2026-04-26 01:13 42.28370 32.36733 38997 ft 449 kts 70°
2026-04-26 01:14 42.30241 32.44750 38996 ft 449 kts 71°
2026-04-26 01:14 42.32075 32.52837 38985 ft 450 kts 73°
2026-04-26 01:15 42.32962 32.61195 38991 ft 454 kts 90°
2026-04-26 01:15 42.32328 32.69652 38992 ft 455 kts 97°
2026-04-26 01:16 42.31312 32.78124 38995 ft 456 kts 98°
2026-04-26 01:16 42.30264 32.86552 38984 ft 455 kts 98°
2026-04-26 01:17 42.29245 32.94955 38986 ft 455 kts 98°
2026-04-26 01:17 42.28247 33.03360 38989 ft 455 kts 98°
2026-04-26 01:18 42.27258 33.11779 38992 ft 456 kts 98°
2026-04-26 01:18 42.26266 33.20211 38988 ft 455 kts 98°
2026-04-26 01:19 42.25271 33.28651 38994 ft 455 kts 98°
2026-04-26 01:19 42.24277 33.37035 38978 ft 454 kts 98°
2026-04-26 01:20 42.23280 33.45397 38997 ft 454 kts 98°
2026-04-26 01:20 42.22266 33.53845 38979 ft 456 kts 98°
2026-04-26 01:21 42.21249 33.62259 38991 ft 455 kts 98°
2026-04-26 01:21 42.20229 33.70645 38989 ft 455 kts 99°
2026-04-26 01:22 42.19193 33.79105 38983 ft 455 kts 99°
2026-04-26 01:22 42.18155 33.87535 38988 ft 455 kts 99°
2026-04-26 01:23 42.17119 33.95895 38995 ft 455 kts 99°
2026-04-26 01:23 42.16067 34.04338 38985 ft 455 kts 99°
2026-04-26 01:24 42.15011 34.12762 38990 ft 456 kts 99°
2026-04-26 01:24 42.13954 34.21143 38993 ft 456 kts 99°
2026-04-26 01:25 42.12887 34.29552 38983 ft 455 kts 99°
2026-04-26 01:25 42.11819 34.37914 38989 ft 456 kts 99°
2026-04-26 01:26 42.10731 34.46331 38985 ft 455 kts 100°
2026-04-26 01:26 42.09587 34.54714 38985 ft 457 kts 100°
2026-04-26 01:27 42.08413 34.63106 38982 ft 456 kts 100°
2026-04-26 01:27 42.07235 34.71488 38993 ft 456 kts 101°
2026-04-26 01:28 42.06049 34.79919 38984 ft 457 kts 101°
2026-04-26 01:28 42.04871 34.88294 38976 ft 456 kts 101°
2026-04-26 01:29 42.03735 34.96689 38981 ft 457 kts 100°
2026-04-26 01:29 42.02617 35.05081 38991 ft 457 kts 100°
2026-04-26 01:30 42.01783 35.13517 38991 ft 457 kts 95°
2026-04-26 01:30 42.01351 35.22055 38994 ft 458 kts 93°
2026-04-26 01:31 42.00983 35.30576 38992 ft 458 kts 94°
2026-04-26 01:31 42.00579 35.39103 39008 ft 459 kts 94°
2026-04-26 01:32 42.00137 35.47654 38997 ft 459 kts 94°
2026-04-26 01:32 41.99671 35.56212 39007 ft 459 kts 94°
2026-04-26 01:33 41.99190 35.64790 39008 ft 460 kts 94°
2026-04-26 01:33 41.98702 35.73328 39006 ft 461 kts 95°
2026-04-26 01:34 41.98205 35.81898 39013 ft 460 kts 95°
2026-04-26 01:34 41.97699 35.90505 39005 ft 461 kts 95°
2026-04-26 01:35 41.97192 35.99046 39012 ft 462 kts 95°
2026-04-26 01:35 41.96675 36.07646 39001 ft 461 kts 95°
2026-04-26 01:36 41.96151 36.16199 39012 ft 462 kts 95°
2026-04-26 01:37 41.95353 36.29053 39012 ft 462 kts 95°
2026-04-26 01:37 41.94814 36.37638 39014 ft 462 kts 95°
2026-04-26 01:38 41.94271 36.46169 39017 ft 463 kts 95°
2026-04-26 01:38 41.93720 36.54740 39016 ft 463 kts 96°
2026-04-26 01:39 41.93160 36.63329 39020 ft 463 kts 96°
2026-04-26 01:39 41.92590 36.71971 39022 ft 464 kts 96°
2026-04-26 01:40 41.92017 36.80537 39027 ft 464 kts 96°
2026-04-26 01:40 41.91439 36.89111 39026 ft 464 kts 96°
2026-04-26 01:41 41.90843 36.97747 39032 ft 465 kts 97°
2026-04-26 01:41 41.89738 37.06236 39022 ft 462 kts 108°
2026-04-26 01:42 41.87565 37.14333 39026 ft 462 kts 114°
2026-04-26 01:42 41.85031 37.22207 39024 ft 461 kts 116°
2026-04-26 01:43 41.82461 37.30036 39022 ft 461 kts 115°
2026-04-26 01:43 41.79903 37.37912 39025 ft 462 kts 115°
2026-04-26 01:44 41.77370 37.45796 39020 ft 462 kts 115°
2026-04-26 01:44 41.74841 37.53698 39027 ft 462 kts 115°
2026-04-26 01:45 41.72325 37.61564 39035 ft 464 kts 115°
2026-04-26 01:45 41.69775 37.69522 39028 ft 462 kts 116°
2026-04-26 01:46 41.67259 37.77358 39029 ft 464 kts 116°
2026-04-26 01:46 41.64710 37.85278 39028 ft 464 kts 116°
2026-04-26 01:47 41.62157 37.93192 39027 ft 464 kts 116°
2026-04-26 01:47 41.59592 38.01119 39028 ft 465 kts 116°
2026-04-26 01:48 41.57029 38.09018 39026 ft 464 kts 116°
2026-04-26 01:48 41.54456 38.16920 39028 ft 464 kts 116°
2026-04-26 01:49 41.51881 38.24806 39030 ft 466 kts 116°
2026-04-26 01:49 41.49289 38.32724 38878 ft 463 kts 116°
2026-04-26 01:49 41.47996 38.36670 38244 ft 464 kts 116°
2026-04-26 01:50 41.46715 38.40569 37742 ft 460 kts 116°
2026-04-26 01:50 41.45448 38.44423 37304 ft 454 kts 116°
2026-04-26 01:50 41.44175 38.48289 36737 ft 451 kts 116°
2026-04-26 01:50 41.42915 38.52101 36182 ft 450 kts 116°
2026-04-26 01:51 41.41656 38.55907 35633 ft 451 kts 116°
2026-04-26 01:51 41.40382 38.59749 34968 ft 454 kts 116°
2026-04-26 01:51 41.39100 38.63607 34217 ft 458 kts 116°
2026-04-26 01:51 41.37815 38.67474 33418 ft 461 kts 116°
2026-04-26 01:52 41.36514 38.71385 32638 ft 462 kts 116°
2026-04-26 01:52 41.35234 38.75231 32077 ft 458 kts 116°
2026-04-26 01:52 41.33941 38.79119 31513 ft 454 kts 116°
2026-04-26 01:52 41.32680 38.82931 30939 ft 451 kts 116°
2026-04-26 01:53 41.31441 38.86712 30345 ft 447 kts 116°
2026-04-26 01:53 41.30211 38.90486 29735 ft 444 kts 116°
2026-04-26 01:53 41.28986 38.94242 29152 ft 439 kts 116°
2026-04-26 01:53 41.27770 38.97968 28573 ft 435 kts 116°
2026-04-26 01:54 41.26572 39.01625 28004 ft 430 kts 116°
2026-04-26 01:54 41.25396 39.05210 27444 ft 426 kts 116°
2026-04-26 01:54 41.24209 39.08824 26880 ft 422 kts 116°
2026-04-26 01:54 41.23049 39.12347 26320 ft 418 kts 116°
2026-04-26 01:55 41.21881 39.15886 25757 ft 414 kts 116°
2026-04-26 01:55 41.20717 39.19379 25147 ft 412 kts 117°
2026-04-26 01:55 41.19541 39.22800 24570 ft 409 kts 117°
2026-04-26 01:55 41.18353 39.26197 24017 ft 405 kts 117°
2026-04-26 01:56 41.17169 39.29561 23471 ft 402 kts 117°
2026-04-26 01:56 41.14939 39.35886 22458 ft 398 kts 117°
2026-04-26 01:56 41.10773 39.47671 20306 ft 399 kts 117°
2026-04-26 01:56 41.09610 39.50977 19872 ft 391 kts 117°
2026-04-26 01:57 41.08467 39.54236 19408 ft 385 kts 117°
2026-04-26 01:57 41.07346 39.57429 18900 ft 381 kts 117°
2026-04-26 01:57 41.06235 39.60589 18421 ft 376 kts 117°
2026-04-26 01:57 41.05139 39.63699 17909 ft 372 kts 117°
2026-04-26 01:58 41.04048 39.66791 17397 ft 368 kts 117°
2026-04-26 01:58 41.02972 39.69833 16882 ft 365 kts 117°
2026-04-26 01:58 41.01904 39.72845 16369 ft 362 kts 117°
2026-04-26 01:58 41.00888 39.75863 15858 ft 359 kts 112°
2026-04-26 01:59 41.00251 39.79048 15345 ft 359 kts 97°
2026-04-26 01:59 41.00451 39.82333 14837 ft 358 kts 73°
2026-04-26 01:59 41.01366 39.85349 14335 ft 355 kts 65°
2026-04-26 01:59 41.02427 39.88298 13816 ft 352 kts 64°
2026-04-26 02:00 41.03482 39.91206 13306 ft 350 kts 64°
2026-04-26 02:00 41.04504 39.94070 12803 ft 347 kts 65°
2026-04-26 02:00 41.05522 39.96978 12297 ft 344 kts 65°
2026-04-26 02:00 41.06016 39.98406 12043 ft 343 kts 65°
2026-04-26 02:01 41.06664 40.00286 11712 ft 341 kts 65°
2026-04-26 02:01 41.07639 40.03131 11203 ft 338 kts 65°
2026-04-26 02:01 41.08602 40.05951 10712 ft 336 kts 65°
2026-04-26 02:01 41.09553 40.08736 10385 ft 327 kts 65°
2026-04-26 02:02 41.10473 40.11433 10250 ft 314 kts 65°
2026-04-26 02:02 41.11344 40.13993 10127 ft 302 kts 65°
2026-04-26 02:02 41.12164 40.16541 9763 ft 299 kts 71°
2026-04-26 02:02 41.12594 40.19220 9473 ft 292 kts 90°
2026-04-26 02:03 41.12317 40.21845 9039 ft 290 kts 106°
2026-04-26 02:03 41.11711 40.24393 8585 ft 290 kts 110°
2026-04-26 02:03 41.11069 40.26926 8218 ft 286 kts 109°
2026-04-26 02:03 41.10479 40.29407 7878 ft 282 kts 108°
2026-04-26 02:04 41.09928 40.31889 7550 ft 278 kts 107°
2026-04-26 02:04 41.09400 40.34356 7190 ft 275 kts 107°
2026-04-26 02:04 41.08889 40.36773 6856 ft 272 kts 107°
2026-04-26 02:04 41.08382 40.39170 6523 ft 268 kts 106°
2026-04-26 02:05 41.07903 40.41552 6190 ft 265 kts 102°
2026-04-26 02:05 41.07765 40.43935 5978 ft 259 kts 84°
2026-04-26 02:05 41.08198 40.46268 5583 ft 261 kts 71°
2026-04-26 02:05 41.08828 40.48530 5138 ft 263 kts 70°
2026-04-26 02:06 41.09446 40.50783 4702 ft 264 kts 71°
2026-04-26 02:06 41.10034 40.53100 4310 ft 263 kts 73°
2026-04-26 02:06 41.10501 40.55422 3989 ft 258 kts 78°
2026-04-26 02:06 41.10923 40.57737 3676 ft 254 kts 75°
2026-04-26 02:07 41.11461 40.59960 3395 ft 250 kts 71°
2026-04-26 02:07 41.12042 40.62088 3125 ft 245 kts 71°
2026-04-26 02:07 41.12606 40.64199 2883 ft 240 kts 71°
2026-04-26 02:07 41.13144 40.66268 2689 ft 234 kts 72°
2026-04-26 02:08 41.13662 40.68277 2395 ft 230 kts 72°
2026-04-26 02:08 41.14168 40.70224 2089 ft 214 kts 72°
2026-04-26 02:08 41.14629 40.71988 1802 ft 189 kts 72°
2026-04-26 02:08 41.15032 40.73537 1570 ft 175 kts 73°
2026-04-26 02:09 41.15413 40.75004 1316 ft 162 kts 73°
2026-04-26 02:09 41.15771 40.76382 1104 ft 156 kts 73°
2026-04-26 02:09 41.16111 40.77680 899 ft 138 kts 73°
2026-04-26 02:09 41.16423 40.78883 717 ft 136 kts 73°
2026-04-26 02:10 41.16729 40.80069 541 ft 136 kts 73°
2026-04-26 02:10 41.17047 40.81242 364 ft 137 kts 71°
2026-04-26 02:10 41.17344 40.82424 180 ft 135 kts 73°
2026-04-26 02:10 41.17650 40.83596 6 ft 130 kts 75°
2026-04-26 02:11 41.17923 40.84678 -1 ft 111 kts 69°
2026-04-26 02:11 41.18071 40.85246 -1 ft 22 kts 71°
2026-04-26 02:11 41.18118 40.85404 -1 ft 14 kts 62°
2026-04-26 02:11 41.18144 40.85472 -1 ft 2 kts 200°
2026-04-26 02:12 41.18126 40.85424 -1 ft 5 kts 244°
2026-04-26 02:12 41.18111 40.85385 -1 ft 6 kts 245°
2026-04-26 02:12 41.18074 40.85250 -1 ft 24 kts 251°
2026-04-26 02:12 41.18002 40.84973 -1 ft 34 kts 250°
2026-04-26 02:13 41.17929 40.84693 -1 ft 30 kts 251°
2026-04-26 02:13 41.17873 40.84479 -1 ft 21 kts 248°
2026-04-26 02:13 41.17791 40.84420 -1 ft 10 kts 176°
2026-04-26 02:13 41.17730 40.84438 -1 ft 9 kts 163°
2026-04-26 02:14 41.17644 40.84475 -1 ft 11 kts 161°
2026-04-26 02:14 41.17596 40.84511 0 ft 5 kts 155°
2026-04-26 02:14 41.17573 40.84523 0 ft 3 kts 160°
2026-04-26 02:14 41.17559 40.84529 0 ft 1 kts 160°
2026-04-26 02:15 41.17557 40.84530 0 ft 0 kts 161°
2026-04-26 02:15 41.17558 40.84530 0 ft 0 kts 161°
2026-04-26 02:15 41.17552 40.84533 0 ft 3 kts 161°
2026-04-26 02:15 41.17549 40.84534 0 ft 0 kts 161°